This is the latest recevied weather packets stored in our database for station/object KE8AFF-13. If no packets are shown the sender has not sent any weather packets the latest 1 day(s).
| Time | Temp. | Humidity | Pressure | Rain* | Wind** | Luminosity | Snow |
|---|---|---|---|---|---|---|---|
| 1777976266 | 14.44° C | 85% | 1005 hPa | 0 mm | 3.13 m/s, 207° | 0 W/m² | - |
| 1777975961 | 14.44° C | 85% | 1005.3 hPa | 0.51 mm | 2.68 m/s, 225° | 0 W/m² | - |
| 1777975658 | 14.44° C | 85% | 1005.1 hPa | 0.51 mm | 1.79 m/s, 221° | 0 W/m² | - |
| 1777975355 | 15° C | 83% | 1005.4 hPa | 0 mm | 4.02 m/s, 230° | 0 W/m² | - |
| 1777975050 | 15° C | 83% | 1005.4 hPa | 0 mm | 3.13 m/s, 259° | 0 W/m² | - |
| 1777974748 | 15° C | 81% | 1005.3 hPa | 0 mm | 3.58 m/s, 199° | 0 W/m² | - |
| 1777974443 | 15.56° C | 80% | 1005.4 hPa | 0 mm | 2.68 m/s, 269° | 0 W/m² | - |
| 1777974140 | 15.56° C | 79% | 1005.4 hPa | 0 mm | 2.24 m/s, 280° | 0 W/m² | - |
| 1777973836 | 15.56° C | 78% | 1005.9 hPa | 0 mm | 1.79 m/s, 248° | 0 W/m² | - |
| 1777973534 | 16.11° C | 78% | 1005.5 hPa | 0 mm | 2.24 m/s, 235° | 0 W/m² | - |
| 1777973230 | 16.11° C | 78% | 1005.3 hPa | 0 mm | 3.13 m/s, 219° | 0 W/m² | - |
| 1777972930 | 16.11° C | 77% | 1005.3 hPa | 0 mm | 4.02 m/s, 242° | 0 W/m² | - |
| 1777972626 | 16.11° C | 77% | 1005.5 hPa | 0 mm | 2.68 m/s, 238° | 0 W/m² | - |
| 1777972332 | 16.11° C | 77% | 1005.2 hPa | 0 mm | 2.24 m/s, 221° | 0 W/m² | - |
| 1777972022 | 16.11° C | 77% | 1005.4 hPa | 0 mm | 3.13 m/s, 232° | 0 W/m² | - |
| 1777971719 | 16.67° C | 76% | 1005.2 hPa | 0 mm | 1.34 m/s, 232° | 0 W/m² | - |
| 1777971417 | 16.67° C | 76% | 1005.4 hPa | 0 mm | 1.34 m/s, 221° | 0 W/m² | - |
| 1777971115 | 16.67° C | 75% | 1005.5 hPa | 0 mm | 1.34 m/s, 236° | 0 W/m² | - |
| 1777970812 | 16.67° C | 75% | 1005.4 hPa | 0 mm | 2.68 m/s, 215° | 0 W/m² | - |
| 1777970516 | 16.67° C | 74% | 1005.3 hPa | 0 mm | 4.02 m/s, 261° | 0 W/m² | - |
| 1777970207 | 16.67° C | 74% | 1005.1 hPa | 0 mm | 1.34 m/s, 231° | 0 W/m² | - |
| 1777969904 | 17.22° C | 73% | 1005 hPa | 0 mm | 2.24 m/s, 244° | 0 W/m² | - |
| 1777969600 | 17.22° C | 73% | 1004.9 hPa | 0 mm | 2.68 m/s, 222° | 0 W/m² | - |
| 1777969297 | 17.22° C | 72% | 1004.9 hPa | 0 mm | 0.89 m/s, 152° | 0 W/m² | - |
| 1777968993 | 17.22° C | 72% | 1004.8 hPa | 0 mm | 2.68 m/s, 224° | 0 W/m² | - |
* Rain latest hour (hover to see other rain measurements)
** Current wind speed in m/s (hover to see current wind gust speed)